Location: *
(28.3744°N, 81.5492°W)
Time: 04:12:20
(UTC+00:00)

Cosmos 2061 Rocket - Pass Details

Date: 15 June 2025
Orbit: 964 x 1013 km, 82.9° (Epoch: 11 July)

Event Time Altitude Azimuth Distance (km) Brightness Sun altitude
Rises 03:47:01 0° 355° (N) 3,682 7.9 -33.0°
Reaches altitude 10° 03:49:33 10° 356° (N) 2,725 7.0 -33.3°
Enters shadow 03:54:26 57° 5° (N) 1,127 4.4 -33.7°
